Hourly Weather Rusiv

Today, 16 June, Wednesday

Time Temperature Precipitation Wind Pressure Humidity
00:00 +16°C° 0 mm 3 mps 735 mmHg 99%
01:00 +16°C° 0 mm 3 mps 735 mmHg 100%
02:00 +14°C° 0 mm 2 mps 736 mmHg 100%
03:00 +13°C° 0 mm 3 mps 736 mmHg 99%
04:00 +12°C° 0 mm 3 mps 735 mmHg 100%
05:00 +12°C° 0 mm 3 mps 736 mmHg 99%
06:00 +13°C° 0 mm 4 mps 736 mmHg 97%
07:00 +14°C° 0 mm 4 mps 736 mmHg 97%
08:00 +17°C° 0 mm 4 mps 737 mmHg 95%
09:00 +18°C° 0 mm 4 mps 737 mmHg 95%
10:00 +19°C° 0 mm 4 mps 737 mmHg 92%
11:00 +21°C° 0 mm 4 mps 737 mmHg 91%
12:00 +22°C° 0 mm 5 mps 737 mmHg 87%
13:00 +22°C° 0 mm 5 mps 737 mmHg 81%
14:00 +22°C° 0 mm 5 mps 736 mmHg 79%
15:00 +23°C° 0 mm 5 mps 736 mmHg 79%
16:00 +23°C° 0 mm 5 mps 736 mmHg 79%
17:00 +23°C° 0 mm 4 mps 736 mmHg 79%
18:00 +23°C° 0 mm 4 mps 736 mmHg 81%
19:00 +22°C° 0 mm 4 mps 736 mmHg 88%
20:00 +21°C° 0 mm 4 mps 737 mmHg 91%
21:00 +19°C° 0 mm 3 mps 737 mmHg 94%
22:00 +18°C° 0 mm 2 mps 737 mmHg 97%
23:00 +18°C° 0 mm 3 mps 737 mmHg 99%

Tomorrow, 17 June, Thursday

Time Temperature Precipitation Wind Pressure Humidity
00:00 +17°C° 0 mm 3 mps 737 mmHg 99%
01:00 +17°C° 0 mm 3 mps 737 mmHg 100%
02:00 +16°C° 0 mm 3 mps 737 mmHg 100%
03:00 +16°C° 0 mm 3 mps 737 mmHg 100%
04:00 +15°C° 0 mm 2 mps 738 mmHg 100%
05:00 +15°C° 0 mm 2 mps 738 mmHg 100%
06:00 +14°C° 0 mm 3 mps 738 mmHg 100%
07:00 +16°C° 0 mm 3 mps 738 mmHg 100%
08:00 +17°C° 0 mm 3 mps 739 mmHg 100%
09:00 +18°C° 0 mm 3 mps 739 mmHg 98%
10:00 +19°C° 0 mm 4 mps 740 mmHg 97%
11:00 +20°C° 0 mm 4 mps 740 mmHg 97%
12:00 +21°C° 0 mm 4 mps 740 mmHg 95%
13:00 +22°C° 0 mm 4 mps 740 mmHg 92%
14:00 +23°C° 0.2 mm 4 mps 739 mmHg 85%
15:00 +23°C° 0.4 mm 4 mps 739 mmHg 84%
16:00 +23°C° 0 mm 4 mps 739 mmHg 89%
17:00 +24°C° 0 mm 3 mps 739 mmHg 86%
18:00 +24°C° 0 mm 3 mps 739 mmHg 87%
19:00 +24°C° 0 mm 3 mps 739 mmHg 91%
20:00 +22°C° 0 mm 3 mps 740 mmHg 94%
21:00 +21°C° 0 mm 3 mps 740 mmHg 96%
22:00 +20°C° 0 mm 3 mps 740 mmHg 96%
23:00 +20°C° 0 mm 2 mps 740 mmHg 98%

Day after tomorrow, 18 June, Friday

Time Temperature Precipitation Wind Pressure Humidity
00:00 +21°C° 0 mm 1 mps 740 mmHg 98%
01:00 +20°C° 0 mm 1 mps 739 mmHg 99%
02:00 +19°C° 0 mm 2 mps 740 mmHg 100%
03:00 +18°C° 0 mm 2 mps 739 mmHg 100%
04:00 +18°C° 0 mm 2 mps 740 mmHg 100%
05:00 +18°C° 0 mm 2 mps 740 mmHg 100%
06:00 +18°C° 0 mm 2 mps 740 mmHg 100%
07:00 +18°C° 0 mm 2 mps 740 mmHg 100%
08:00 +19°C° 0 mm 3 mps 740 mmHg 99%
09:00 +19°C° 0 mm 3 mps 740 mmHg 98%
10:00 +19°C° 0 mm 2 mps 740 mmHg 99%
11:00 +20°C° 0 mm 2 mps 740 mmHg 97%
12:00 +21°C° 0 mm 3 mps 740 mmHg 97%
13:00 +22°C° 0 mm 3 mps 741 mmHg 96%
14:00 +23°C° 0 mm 4 mps 740 mmHg 95%
15:00 +23°C° 0 mm 4 mps 740 mmHg 93%
16:00 +23°C° 0 mm 4 mps 739 mmHg 91%
17:00 +23°C° 0 mm 5 mps 739 mmHg 92%
18:00 +23°C° 0 mm 5 mps 739 mmHg 92%
19:00 +23°C° 0 mm 4 mps 739 mmHg 95%
20:00 +23°C° 0 mm 5 mps 739 mmHg 95%
21:00 +22°C° 0 mm 5 mps 739 mmHg 96%
22:00 +22°C° 0 mm 4 mps 739 mmHg 97%
23:00 +21°C° 0 mm 4 mps 739 mmHg 98%

19 June, Saturday

Time Temperature Precipitation Wind Pressure Humidity
00:00 +20°C° 0 mm 4 mps 739 mmHg 99%
01:00 +19°C° 0 mm 4 mps 739 mmHg 100%
02:00 +19°C° 0 mm 3 mps 739 mmHg 100%
03:00 +19°C° 0 mm 3 mps 739 mmHg 100%
04:00 +18°C° 0 mm 2 mps 739 mmHg 100%
05:00 +18°C° 0 mm 2 mps 740 mmHg 100%
06:00 +18°C° 0 mm 2 mps 740 mmHg 100%
07:00 +18°C° 0 mm 2 mps 740 mmHg 100%
08:00 +19°C° 0 mm 2 mps 740 mmHg 98%
09:00 +20°C° 0 mm 2 mps 741 mmHg 96%
10:00 +21°C° 0 mm 4 mps 741 mmHg 92%
11:00 +22°C° 0 mm 4 mps 741 mmHg 89%
12:00 +22°C° 0 mm 4 mps 740 mmHg 85%
13:00 +23°C° 0 mm 4 mps 740 mmHg 85%
14:00 +24°C° 0 mm 3 mps 740 mmHg 83%
15:00 +24°C° 0 mm 3 mps 739 mmHg 82%
16:00 +24°C° 0 mm 3 mps 739 mmHg 84%
17:00 +24°C° 0 mm 2 mps 739 mmHg 84%
18:00 +23°C° 0 mm 4 mps 739 mmHg 90%
19:00 +21°C° 2.6 mm 2 mps 739 mmHg 93%
20:00 +22°C° 0.1 mm 1 mps 739 mmHg 97%
21:00 +21°C° 0 mm 2 mps 739 mmHg 98%
22:00 +20°C° 0 mm 3 mps 739 mmHg 98%
23:00 +20°C° 0 mm 2 mps 739 mmHg 100%

20 June, Sunday

Time Temperature Precipitation Wind Pressure Humidity
00:00 +19°C° 0 mm 2 mps 739 mmHg 100%
01:00 +19°C° 0 mm 2 mps 739 mmHg 100%
02:00 +19°C° 0 mm 2 mps 739 mmHg 100%
03:00 +19°C° 0 mm 2 mps 739 mmHg 100%
04:00 +19°C° 0 mm 2 mps 739 mmHg 100%
05:00 +19°C° 0 mm 2 mps 739 mmHg 100%
06:00 +19°C° 0 mm 2 mps 739 mmHg 100%
07:00 +20°C° 0 mm 1 mps 739 mmHg 100%
08:00 +20°C° 0 mm 1 mps 739 mmHg 100%
09:00 +20°C° 0 mm 1 mps 739 mmHg 99%
10:00 +21°C° 0 mm 1 mps 740 mmHg 97%
11:00 +21°C° 0 mm 2 mps 740 mmHg 94%
12:00 +24°C° 0 mm 2 mps 739 mmHg 90%
13:00 +23°C° 0 mm 4 mps 739 mmHg 87%
14:00 +25°C° 0 mm 4 mps 739 mmHg 86%
15:00 +25°C° 0 mm 4 mps 739 mmHg 85%
16:00 +25°C° 0 mm 3 mps 739 mmHg 84%
17:00 +25°C° 0 mm 3 mps 738 mmHg 84%
18:00 +25°C° 0 mm 3 mps 738 mmHg 87%
19:00 +25°C° 0 mm 3 mps 738 mmHg 90%
20:00 +24°C° 0 mm 2 mps 738 mmHg 94%
21:00 +23°C° 0 mm 2 mps 738 mmHg 96%
22:00 +21°C° 0 mm 2 mps 738 mmHg 97%
23:00 +22°C° 0 mm 1 mps 738 mmHg 99%

21 June, Monday

Time Temperature Precipitation Wind Pressure Humidity
00:00 +21°C° 0 mm 1 mps 738 mmHg 100%
01:00 +21°C° 0 mm 1 mps 737 mmHg 100%
02:00 +20°C° 0 mm 1 mps 737 mmHg 100%
03:00 +19°C° 0 mm 2 mps 737 mmHg 100%
04:00 +20°C° 0 mm 1 mps 737 mmHg 100%
05:00 +20°C° 0 mm 1 mps 737 mmHg 100%
06:00 +20°C° 0 mm 1 mps 737 mmHg 100%
07:00 +20°C° 0 mm 1 mps 738 mmHg 100%
08:00 +20°C° 0 mm 1 mps 737 mmHg 100%
09:00 +21°C° 0 mm 1 mps 737 mmHg 97%
10:00 +22°C° 0 mm 1 mps 737 mmHg 96%
11:00 +22°C° 0 mm 3 mps 737 mmHg 95%
12:00 +24°C° 0 mm 2 mps 737 mmHg 93%
13:00 +24°C° 0 mm 2 mps 736 mmHg 92%
14:00 +25°C° 0 mm 2 mps 736 mmHg 88%
15:00 +26°C° 0 mm 2 mps 736 mmHg 85%
16:00 +26°C° 0 mm 2 mps 735 mmHg 83%
17:00 +26°C° 0 mm 3 mps 735 mmHg 83%
18:00 +26°C° 0 mm 2 mps 735 mmHg 85%
19:00 +25°C° 0 mm 2 mps 735 mmHg 90%
20:00 +25°C° 0 mm 1 mps 735 mmHg 95%
21:00 +24°C° 0 mm 2 mps 734 mmHg 96%
22:00 +23°C° 0 mm 2 mps 734 mmHg 98%
23:00 +23°C° 0 mm 1 mps 734 mmHg 99%
Show more